Weather History for KLMT - December, 2012

Change the Weather History Date:

Tuesday, December 18, 2012

  Actual Average Record
Temperature  
Mean Temperature 16 °F 29 °F  
Max Temperature 28 °F 38 °F 54 °F (2005)
Min Temperature 4 °F 20 °F -5 °F (1967)
Degree Days  
Heating Degree Days 49 36  
Month to date heating degree days 598 634  
Since 1 July heating degree days 2068 2436  
Cooling Degree Days 0 0  
Month to date cooling degree days 0 0  
Year to date cooling degree days 177 169  
Moisture  
Dew Point 13 °F    
Average Humidity 89    
Maximum Humidity 100    
Minimum Humidity 68    
Precipitation  
Precipitation T in 0.06 in 0.80 in (1940)
Month to date precipitation 1.41 0.85  
Year to date precipitation 9.52 14.36  
Snow  
Snow 0.00 in - - ()
Snow Depth 2.00 in    
Sea Level Pressure  
Sea Level Pressure 30.02 in    
Wind  
Wind Speed 4 mph (WSW)    
Max Wind Speed 15 mph    
Max Gust Speed 18 mph    
Visibility 8 miles    
Events Fog , Snow    
T = Trace of Precipitation, MM = Missing Value Source: NWS Daily Summary

Daily Weather History Graph

Daily Weather History Graph

Search for Another Location

Airport or City:

Trip Planner

Search our weather history database for the weather conditions in past years. The results will help you decide how hot, cold, wet, or windy it might be!

Date:

Astronomy

Dec. 18, 2012 Rise Set
Actual Time 7:30 AM PST 4:36 PM PST
Civil Twilight 6:58 AM PST 5:08 PM PST
Nautical Twilight 6:23 AM PST 5:44 PM PST
Astronomical Twilight 5:49 AM PST 6:18 PM PST
Moon 11:07 AM PST (12/18) 11:15 PM PST (12/18)
Length of Visible Light 10h 09m
Length of Day
9h 06m
Waxing Crescent, 36% of the Moon is Illuminated
Dec 18
Waxing Crescent
Dec 19
First Quarter
Dec 28
Full
Jan 4
Last Quarter
Jan 11
New

Hourly Weather History & Observations

Time (PST) Temp. Windchill Dew Point Humidity Pressure Visibility Wind Dir Wind Speed Gust Speed Precip Events Conditions
12:01 AM 10.4 °F - 8.6 °F 92% 29.94 in 10.0 mi Calm Calm - N/A   Mostly Cloudy
12:53 AM 10.0 °F - 8.1 °F 92% 30.03 in 10.0 mi Calm Calm - N/A   Mostly Cloudy
1:53 AM 14.0 °F - 12.0 °F 92% 30.02 in 10.0 mi Calm Calm - N/A   Overcast
2:53 AM 17.1 °F 10.0 °F 15.1 °F 92% 30.01 in 10.0 mi WSW 4.6 mph - N/A   Mostly Cloudy
3:46 AM 21.2 °F - 17.6 °F 86% 29.92 in 2.0 mi Calm Calm - 0.00 in Snow Light Snow
3:50 AM 21.2 °F - 19.4 °F 93% 29.92 in 3.0 mi Calm Calm - 0.00 in Snow Light Snow
3:53 AM 21.0 °F - 19.0 °F 92% 29.99 in 4.0 mi Calm Calm - 0.00 in Snow Light Snow
4:13 AM 21.2 °F - 19.4 °F 93% 29.92 in 1.8 mi Calm Calm - 0.00 in Snow Light Snow
4:28 AM 21.2 °F - 19.4 °F 93% 29.91 in 3.0 mi Calm Calm - 0.00 in Snow Light Snow
4:36 AM 19.4 °F - 19.4 °F 100% 29.91 in 8.0 mi Calm Calm - 0.00 in   Overcast
4:43 AM 19.4 °F - 17.6 °F 93% 29.91 in 10.0 mi Calm Calm - 0.00 in   Overcast
4:53 AM 18.0 °F - 16.0 °F 92% 30.00 in 10.0 mi Calm Calm - 0.00 in   Mostly Cloudy
5:24 AM 12.2 °F - 12.2 °F 100% 29.91 in 1.8 mi Calm Calm - N/A   Partly Cloudy
5:28 AM 10.4 °F - 10.4 °F 100% 29.91 in 0.8 mi Calm Calm - N/A   Scattered Clouds
5:53 AM 12.0 °F - 10.9 °F 95% 30.02 in 0.5 mi Calm Calm - N/A Fog Light Freezing Fog
6:00 AM 12.2 °F - 10.4 °F 92% 29.92 in 7.0 mi Calm Calm - N/A Fog Patches of Fog
6:21 AM 12.2 °F 6.1 °F 10.4 °F 92% 29.92 in 7.0 mi East 3.5 mph - 0.00 in Snow Light Snow
6:53 AM 15.1 °F 9.4 °F 12.9 °F 91% 30.02 in 7.0 mi SSW 3.5 mph - 0.00 in Snow Light Snow
7:39 AM 15.8 °F - 12.2 °F 86% 29.92 in 9.0 mi Calm Calm - 0.00 in   Mostly Cloudy
7:53 AM 15.1 °F - 12.9 °F 91% 30.04 in 10.0 mi Calm Calm - 0.00 in   Mostly Cloudy
8:53 AM 15.1 °F - 14.0 °F 95% 30.08 in 10.0 mi Calm Calm - N/A   Mostly Cloudy
9:53 AM 18.0 °F 11.1 °F 18.0 °F 100% 30.09 in 10.0 mi WSW 4.6 mph - N/A   Partly Cloudy
10:53 AM 21.9 °F 17.2 °F 19.0 °F 89% 30.08 in 10.0 mi West 3.5 mph - N/A   Partly Cloudy
11:53 AM 25.0 °F 20.7 °F 18.0 °F 75% 30.06 in 10.0 mi SW 3.5 mph - N/A   Scattered Clouds
12:53 PM 26.1 °F 18.4 °F 18.0 °F 71% 30.06 in 10.0 mi West 6.9 mph - N/A   Mostly Cloudy
1:53 PM 26.1 °F 15.0 °F 19.9 °F 78% 30.03 in 10.0 mi WSW 12.7 mph - N/A   Mostly Cloudy
2:53 PM 26.1 °F 14.5 °F 17.1 °F 69% 30.03 in 10.0 mi West 13.8 mph - N/A   Mostly Cloudy
3:53 PM 25.0 °F 14.8 °F 16.0 °F 69% 30.05 in 10.0 mi WNW 10.4 mph - N/A   Mostly Cloudy
4:53 PM 18.0 °F 8.7 °F 12.0 °F 78% 30.09 in 10.0 mi WNW 6.9 mph - N/A   Scattered Clouds
5:53 PM 14.0 °F 8.2 °F 10.0 °F 84% 30.13 in 7.0 mi SE 3.5 mph - N/A   Scattered Clouds
6:53 PM 16.0 °F 8.8 °F 10.9 °F 81% 30.13 in 7.0 mi SSW 4.6 mph - N/A   Partly Cloudy
7:53 PM 10.0 °F - 8.1 °F 92% 30.17 in 7.0 mi Calm Calm - N/A   Partly Cloudy
8:53 PM 10.0 °F 3.6 °F 7.0 °F 87% 30.18 in 7.0 mi South 3.5 mph - N/A   Partly Cloudy
9:53 PM 6.1 °F -0.9 °F 3.0 °F 87% 30.20 in 7.0 mi ENE 3.5 mph - N/A   Partly Cloudy
10:53 PM 7.0 °F - 5.0 °F 92% 30.19 in 10.0 mi Calm Calm - N/A   Clear
11:53 PM 6.1 °F - 3.9 °F 91% 30.19 in 9.0 mi Calm Calm - N/A   Clear